Weather observations for the past three days for
Bellingham, Bellingham International Airport
Imperial (Metric)
Date Time (pdt) Wind (mph) Vis. (mi.) Weather Sky Cond. Temperature (ºF) Relative Humidity Wind Chill (°F) Heat Index (°F) Pressure Precipitation (in)
Air Dwpt 6 hour altimeter (in) sea level (mb) 1 hr 3 hr 6 hr
Max. Min.
18 00:53 S 10 G 24 10.00 Fair CLR 64.9 57 76% 29.99 1016.1
17 23:53 S 14 G 25 10.00 Fair CLR 66 55.9 70% 29.98 1015.7
17 22:53 S 12 G 22 10.00 Fair CLR 66.9 57 73.9 66.9 71% 29.97 1015.2
17 21:53 S 10 10.00 Fair CLR 66.9 60.1 79% 29.96 1015.1
17 20:53 Vrbl 6 10.00 Fair CLR 69.1 61 76% 29.95 1014.5
17 19:53 S 7 10.00 Fair CLR 72 61 68% 29.94 1014.4
17 18:53 S 10 10.00 Fair CLR 73 57.9 59% 29.94 1014.2
17 17:53 S 12 G 21 10.00 Fair CLR 72 60.1 66% 29.94 1014.2
17 16:53 S 7 10.00 Fair CLR 73 60.1 79 73 64% 29.94 1014.2
17 15:53 SW 7 10.00 Fair CLR 77 60.1 56% 79 29.93 1014.0
17 14:53 S 6 10.00 Fair CLR 77 61 58% 79 29.94 1014.4
17 13:53 S 7 10.00 Fair CLR 75 59 58% 77 29.96 1014.8
17 12:53 Vrbl 6 10.00 Fair CLR 75.9 61 60% 78 29.95 1014.8
17 11:53 Vrbl 5 10.00 Fair CLR 79 60.1 52% 80 29.95 1014.7
17 10:53 SW 5 10.00 Fair CLR 75 59 75 55.9 58% 77 29.96 1014.9
17 09:53 S 5 10.00 Fair CLR 72 60.1 66% 29.97 1015.2
17 08:53 S 8 10.00 Fair CLR 68 59 73% 29.97 1015.3
17 07:53 S 5 10.00 Fair CLR 66 62.1 87% 29.96 1015.2
17 06:53 Calm 10.00 Fair CLR 63 61 93% 29.96 1014.8
17 05:53 Calm 1.75 Fog/Mist CLR 57 57 100% 29.93 1014.0
17 04:53 Calm 10.00 Fair CLR 57.9 57 64 57 97% 29.92 1013.7
17 03:53 Calm 10.00 Fair CLR 59 59 100% 29.92 1013.5
17 02:53 Calm 10.00 Fair CLR 59 57.9 96% 29.91 1013.3
17 01:53 Calm 10.00 Fair CLR 60.1 60.1 100% 29.91 1013.4
17 00:53 Calm 10.00 Fair CLR 61 60.1 97% 29.91 1013.4
16 23:53 Calm 10.00 Fair CLR 63 60.1 90% 29.9 1013.1
16 22:53 Calm 10.00 Fair CLR 63 60.1 82 63 90% 29.9 1013.0
16 21:53 Calm 10.00 Fair CLR 66 59 78% 29.89 1012.8
16 20:53 Calm 10.00 Fair CLR 69.1 62.1 78% 29.89 1012.6
16 19:53 W 3 10.00 Fair CLR 75.9 61 60% 78 29.89 1012.7
16 18:53 S 5 10.00 Fair CLR 80.1 60.1 51% 81 29.9 1013.0
16 17:53 Vrbl 3 10.00 Fair CLR 81 60.1 49% 82 29.91 1013.4
16 16:53 NW 6 10.00 Fair CLR 82 57.9 82.9 70 44% 82 29.93 1013.9
16 15:53 Vrbl 5 10.00 Fair CLR 81 57.9 45% 81 29.95 1014.6
16 14:53 Vrbl 6 10.00 Fair CLR 79 59 50% 80 29.96 1015.1
16 13:53 Vrbl 6 10.00 Fair CLR 78.1 59 52% 79 29.98 1015.7
16 12:53 NW 6 10.00 Fair CLR 75 59 58% 77 30 1016.2
16 11:53 Vrbl 7 10.00 Fair CLR 72 61 68% 30.01 1016.7
16 10:53 Vrbl 5 10.00 Fair CLR 70 61 71.1 54 73% 30.02 1017.0
16 09:53 S 5 10.00 Fair CLR 66.9 60.1 79% 30.03 1017.4
16 08:53 Calm 10.00 Fair CLR 63 59 87% 30.03 1017.6
16 07:53 Calm 10.00 A Few Clouds FEW020 63 57.9 84% 30.03 1017.6
16 06:53 Calm 10.00 Fair CLR 59 57 93% 30.03 1017.5
16 05:53 Calm 10.00 Fair CLR 54 54 100% 30.03 1017.4
16 04:53 Calm 10.00 Fair CLR 55 55 63 55 100% 30.03 1017.4
16 03:53 S 3 10.00 Fair CLR 57.9 55.9 93% 30.03 1017.4
16 02:53 S 3 10.00 Fair CLR 57.9 57 97% 30.02 1017.3
16 01:53 S 3 10.00 Fair CLR 59 57.9 96% 30.02 1017.2
16 00:53 S 3 10.00 Fair CLR 60.1 57.9 93% 30.02 1017.2
15 23:53 S 7 10.00 Fair CLR 62.1 59 90% 30.02 1017.2
15 22:53 S 7 10.00 Fair CLR 62.1 57 71.1 62.1 84% 30.02 1017.2
15 21:53 S 7 10.00 Fair CLR 62.1 57.9 86% 30.03 1017.5
15 20:53 S 6 10.00 Fair CLR 64 57.9 81% 30.03 1017.5
15 19:53 S 6 10.00 Fair CLR 66.9 57.9 73% 30.03 1017.6
15 18:53 S 8 10.00 Fair CLR 68 57 68% 30.04 1017.9
15 17:53 Vrbl 6 10.00 Fair CLR 70 57 64% 30.06 1018.4
15 16:53 S 7 10.00 Fair CLR 70 57 71.1 61 64% 30.07 1019.0
15 15:53 S 9 10.00 Fair CLR 69.1 55.9 63% 30.09 1019.5
15 14:53 S 10 10.00 Fair CLR 66.9 57 71% 30.1 1019.9
15 13:53 S 12 G 20 10.00 Fair CLR 64 57 78% 30.11 1020.2
15 12:53 S 8 G 20 10.00 Fair CLR 63 57 81% 30.11 1020.4
15 11:53 S 13 G 21 10.00 Partly Cloudy SCT008 61 55.9 84% 30.12 1020.6
15 10:53 S 10 G 21 10.00 Partly Cloudy SCT006 61 55.9 61 57 84% 30.13 1020.8
15 09:53 S 10 G 21 10.00 Mostly Cloudy BKN006 59 55 87% 30.13 1020.8
15 08:53 S 13 10.00 Mostly Cloudy BKN007 59 55 87% 30.12 1020.5
15 07:53 S 13 G 25 10.00 Partly Cloudy SCT007 57.9 55 90% 30.11 1020.1
15 06:53 S 12 G 23 10.00 Fair CLR 57.9 54 87% 30.09 1019.7
15 05:53 S 12 G 24 10.00 Fair CLR 57.9 53.1 84% 30.08 1019.1
15 04:53 S 12 G 23 10.00 Fair CLR 57 53.1 64.9 57 87% 30.07 1018.8
15 03:53 S 14 G 25 10.00 Fair CLR 57.9 54 87% 30.06 1018.3
15 02:53 S 13 G 24 10.00 Fair CLR 57.9 54 87% 30.04 1017.6
15 01:53 S 10 G 23 10.00 Fair CLR 59 55 87% 30.03 1017.4
Date Time (pdt) Wind (mph) Vis. (mi.) Weather Sky Cond. Air Dwpt Max. Min. Relative Humidity Wind Chill (°F) Heat Index (°F) altimeter (in) sea level (mb) 1 hr 3 hr 6 hr
6 hour
Temperature (ºF) Pressure Precipitation (in)